{"data":{"norad_id":55635,"intl_designator":"2023-021H","name":"STARLINK-5495","alt_names":[],"object_type":"PAYLOAD","status":"ACTIVE","operator":null,"country":"US","launch_date":"2023-02-17","launch_site_code":"AFWTR","launch_vehicle":null,"mission":null,"orbit_class":"UNKNOWN","rcs_meters":null,"size_class":null,"mass_kg":null,"dimensions":null,"purposes":["comms"],"wikipedia_slug":null,"has_3d_model":false,"image_url":null,"decayed_at":null,"tle_current":{"epoch":"2026-05-25T00:18:50.583744Z","epoch_age_seconds":73886,"freshness":"FRESH","line1":"1 55635U 23021H   26145.01308546  .00000653  00000+0  62496-4 0  9991","line2":"2 55635  69.9992 352.0325 0002906 268.3886  91.6940 14.98336987180228","mean_motion":14.98336987,"eccentricity":0.0002906,"inclination_deg":69.9992,"raan_deg":352.0325,"arg_perigee_deg":268.3886,"mean_anomaly_deg":91.694,"bstar":6.2496e-5,"rev_number":18022,"period_min":96.106550962424,"perigee_km":570.01456453202,"apogee_km":574.05400408246,"semimajor_km":6950.1712843072,"source":"CELESTRAK","updated_at":"2026-05-25T13:38:17.848151Z"}}}